• In Netherlands
  • List of Countries
  • For 7 days
  • Water Temperature
  • Satellite Maps
  • Weather Map
  • Weather Widgets
  • user-avatar
    Login

    Hourly Weather Bregenz

    Today, 28 February, Tuesday

    Time Temperature Precipitation Wind Pressure Humidity
    00:00 -3°C° 0 mm 4 mps 635 mmHg 87%
    01:00 -3°C° 0 mm 4 mps 634 mmHg 86%
    02:00 -2°C° 0.1 mm 3 mps 634 mmHg 88%
    03:00 -2°C° 0.1 mm 3 mps 634 mmHg 89%
    04:00 -2°C° 0.1 mm 2 mps 634 mmHg 90%
    05:00 -2°C° 0.8 mm 2 mps 633 mmHg 92%
    06:00 -2°C° 0.8 mm 2 mps 633 mmHg 93%
    07:00 -2°C° 0.8 mm 2 mps 633 mmHg 95%
    08:00 0°C° 1.5 mm 1 mps 633 mmHg 96%
    09:00 0°C° 1.5 mm 1 mps 633 mmHg 97%
    10:00 0°C° 1.5 mm 1 mps 633 mmHg 97%
    11:00 +1°C° 0.8 mm 1 mps 632 mmHg 97%
    12:00 -1°C° 0.8 mm 2 mps 632 mmHg 97%
    13:00 +1°C° 0.8 mm 2 mps 631 mmHg 97%
    14:00 +1°C° 0.3 mm 2 mps 631 mmHg 97%
    15:00 +1°C° 0.3 mm 2 mps 630 mmHg 97%
    16:00 +2°C° 0.3 mm 2 mps 630 mmHg 97%
    17:00 0°C° 1.8 mm 3 mps 630 mmHg 97%
    18:00 -2°C° 1.8 mm 4 mps 630 mmHg 96%
    19:00 -4°C° 1.8 mm 6 mps 631 mmHg 96%
    20:00 -5°C° 1.3 mm 5 mps 631 mmHg 96%
    21:00 -5°C° 1.3 mm 5 mps 632 mmHg 96%
    22:00 -5°C° 1.3 mm 4 mps 632 mmHg 96%
    23:00 -5°C° 0.5 mm 4 mps 633 mmHg 96%

    Tomorrow, 1 March, Wednesday

    Time Temperature Precipitation Wind Pressure Humidity
    00:00 -7°C° 0.5 mm 4 mps 633 mmHg 96%
    01:00 -7°C° 0.5 mm 4 mps 634 mmHg 96%
    02:00 -8°C° 0.2 mm 4 mps 634 mmHg 96%
    03:00 -9°C° 0.2 mm 4 mps 634 mmHg 96%
    04:00 -10°C° 0.2 mm 4 mps 634 mmHg 96%
    05:00 -8°C° 0.1 mm 3 mps 635 mmHg 95%
    06:00 -8°C° 0.1 mm 3 mps 635 mmHg 94%
    07:00 -8°C° 0.1 mm 3 mps 636 mmHg 93%
    08:00 -8°C° 0.1 mm 4 mps 637 mmHg 93%
    09:00 -7°C° 0.1 mm 4 mps 637 mmHg 92%
    10:00 -4°C° 0.1 mm 4 mps 638 mmHg 91%
    11:00 -4°C° 0.3 mm 4 mps 639 mmHg 91%
    12:00 -3°C° 0.3 mm 4 mps 639 mmHg 90%
    13:00 -4°C° 0.3 mm 5 mps 639 mmHg 89%
    14:00 -2°C° 0.2 mm 4 mps 639 mmHg 90%
    15:00 -2°C° 0.2 mm 4 mps 640 mmHg 91%
    16:00 -1°C° 0.2 mm 3 mps 640 mmHg 92%
    17:00 -2°C° 0.1 mm 3 mps 640 mmHg 92%
    18:00 -4°C° 0.1 mm 3 mps 640 mmHg 93%
    19:00 -5°C° 0.1 mm 2 mps 640 mmHg 93%
    20:00 -5°C° 0.1 mm 3 mps 640 mmHg 93%
    21:00 -5°C° 0.1 mm 3 mps 640 mmHg 92%
    22:00 -5°C° 0.1 mm 3 mps 640 mmHg 92%
    23:00 -4°C° 0.2 mm 4 mps 640 mmHg 93%

    Day after tomorrow, 2 March, Thursday

    Time Temperature Precipitation Wind Pressure Humidity
    00:00 -4°C° 0.2 mm 4 mps 640 mmHg 93%
    01:00 -4°C° 0.2 mm 4 mps 640 mmHg 94%
    02:00 -4°C° 0.4 mm 4 mps 640 mmHg 94%
    03:00 -4°C° 0.4 mm 3 mps 640 mmHg 94%
    04:00 -4°C° 0.4 mm 3 mps 640 mmHg 94%
    05:00 -4°C° 1 mm 3 mps 640 mmHg 94%
    06:00 -4°C° 1 mm 3 mps 640 mmHg 95%
    07:00 -2°C° 1 mm 3 mps 640 mmHg 95%
    08:00 -2°C° 1.3 mm 3 mps 641 mmHg 96%
    09:00 -1°C° 1.3 mm 3 mps 641 mmHg 97%
    10:00 0°C° 1.3 mm 3 mps 642 mmHg 97%
    11:00 0°C° 0.6 mm 3 mps 643 mmHg 96%
    12:00 0°C° 0.6 mm 3 mps 643 mmHg 94%
    13:00 -1°C° 0.6 mm 4 mps 644 mmHg 93%
    14:00 0°C° 0 mm 3 mps 644 mmHg 92%
    15:00 +1°C° 0 mm 2 mps 644 mmHg 91%
    16:00 +1°C° 0 mm 2 mps 644 mmHg 90%
    17:00 -2°C° 0 mm 2 mps 644 mmHg 91%
    18:00 -4°C° 0 mm 2 mps 643 mmHg 92%
    19:00 -6°C° 0 mm 2 mps 643 mmHg 93%
    20:00 -6°C° 0 mm 2 mps 642 mmHg 92%
    21:00 -7°C° 0 mm 2 mps 642 mmHg 91%
    22:00 -7°C° 0 mm 2 mps 642 mmHg 90%
    23:00 -6°C° 0 mm 2 mps 642 mmHg 90%

    3 March, Friday

    Time Temperature Precipitation Wind Pressure Humidity
    00:00 -6°C° 0 mm 2 mps 642 mmHg 90%
    01:00 -5°C° 0 mm 2 mps 642 mmHg 91%
    02:00 -5°C° 0 mm 2 mps 642 mmHg 90%
    03:00 -4°C° 0 mm 2 mps 642 mmHg 89%
    04:00 -3°C° 0 mm 2 mps 641 mmHg 88%
    05:00 -3°C° 0 mm 2 mps 641 mmHg 88%
    06:00 -3°C° 0 mm 2 mps 641 mmHg 89%
    07:00 -3°C° 0 mm 2 mps 640 mmHg 89%
    08:00 -2°C° 0 mm 2 mps 641 mmHg 89%
    09:00 +1°C° 0 mm 2 mps 641 mmHg 89%
    10:00 +2°C° 0 mm 2 mps 641 mmHg 89%
    11:00 +3°C° 0 mm 2 mps 640 mmHg 88%
    12:00 +4°C° 0 mm 2 mps 640 mmHg 88%
    13:00 +4°C° 0 mm 3 mps 639 mmHg 87%
    14:00 +4°C° 0 mm 3 mps 639 mmHg 88%
    15:00 +4°C° 0 mm 3 mps 638 mmHg 89%
    16:00 +4°C° 0 mm 3 mps 638 mmHg 90%
    17:00 +2°C° 0 mm 3 mps 637 mmHg 91%
    18:00 +1°C° 0 mm 3 mps 637 mmHg 92%
    19:00 0°C° 0 mm 3 mps 636 mmHg 93%
    20:00 -1°C° 0 mm 3 mps 636 mmHg 93%
    21:00 -1°C° 0 mm 3 mps 636 mmHg 93%
    22:00 -1°C° 0 mm 3 mps 635 mmHg 92%
    23:00 -1°C° 0 mm 3 mps 635 mmHg 92%

    4 March, Saturday

    Time Temperature Precipitation Wind Pressure Humidity
    00:00 -1°C° 0 mm 3 mps 635 mmHg 92%
    01:00 -1°C° 0 mm 3 mps 634 mmHg 91%
    02:00 -1°C° 0 mm 3 mps 634 mmHg 92%
    03:00 -1°C° 0 mm 3 mps 634 mmHg 92%
    04:00 -2°C° 0 mm 3 mps 633 mmHg 92%
    05:00 -2°C° 0.1 mm 2 mps 633 mmHg 92%
    06:00 -2°C° 0.1 mm 2 mps 633 mmHg 93%
    07:00 -2°C° 0.1 mm 2 mps 633 mmHg 93%
    08:00 -1°C° 0.5 mm 2 mps 634 mmHg 93%
    09:00 +1°C° 0.5 mm 2 mps 634 mmHg 94%
    10:00 +1°C° 0.5 mm 2 mps 635 mmHg 94%
    11:00 +2°C° 0.7 mm 2 mps 635 mmHg 93%
    12:00 +2°C° 0.7 mm 2 mps 635 mmHg 93%
    13:00 +3°C° 0.7 mm 1 mps 635 mmHg 93%
    14:00 +3°C° 0.3 mm 1 mps 635 mmHg 93%
    15:00 +2°C° 0.3 mm 2 mps 636 mmHg 94%
    16:00 +2°C° 0.3 mm 2 mps 636 mmHg 94%
    17:00 +1°C° 0.4 mm 2 mps 636 mmHg 95%
    18:00 +1°C° 0.4 mm 1 mps 636 mmHg 96%
    19:00 0°C° 0.4 mm 1 mps 636 mmHg 97%
    20:00 0°C° 0.6 mm 1 mps 636 mmHg 96%
    21:00 0°C° 0.6 mm 1 mps 636 mmHg 95%
    22:00 -1°C° 0.6 mm 1 mps 637 mmHg 95%
    23:00 -1°C° 0.3 mm 1 mps 637 mmHg 95%

    5 March, Sunday

    Time Temperature Precipitation Wind Pressure Humidity
    00:00 -1°C° 0.3 mm 1 mps 637 mmHg 95%
    01:00 -3°C° 0.3 mm 2 mps 637 mmHg 95%
    02:00 -3°C° 0.4 mm 2 mps 637 mmHg 94%
    03:00 -3°C° 0.4 mm 2 mps 637 mmHg 94%
    04:00 -3°C° 0.4 mm 2 mps 637 mmHg 94%
    05:00 -3°C° 0.5 mm 2 mps 637 mmHg 94%
    06:00 -3°C° 0.5 mm 2 mps 638 mmHg 94%
    07:00 -1°C° 0.5 mm 1 mps 638 mmHg 94%
    08:00 -2°C° 0.5 mm 2 mps 638 mmHg 94%
    09:00 -2°C° 0.5 mm 2 mps 639 mmHg 93%
    10:00 -1°C° 0.5 mm 2 mps 639 mmHg 92%
    11:00 +1°C° 0.2 mm 2 mps 639 mmHg 91%
    12:00 +1°C° 0.2 mm 2 mps 639 mmHg 89%
    13:00 +3°C° 0.2 mm 1 mps 639 mmHg 88%
    14:00 +3°C° 0.2 mm 1 mps 639 mmHg 87%
    15:00 +3°C° 0.2 mm 1 mps 639 mmHg 87%
    16:00 +3°C° 0.2 mm 1 mps 639 mmHg 87%
    17:00 +1°C° 0.1 mm 1 mps 638 mmHg 90%
    18:00 -1°C° 0.1 mm 1 mps 638 mmHg 93%
    19:00 -3°C° 0.1 mm 1 mps 638 mmHg 96%
    20:00 -2°C° 0 mm 1 mps 638 mmHg 95%
    21:00 -2°C° 0 mm 1 mps 638 mmHg 94%
    22:00 -2°C° 0 mm 1 mps 638 mmHg 92%
    23:00 -4°C° 0 mm 2 mps 638 mmHg 92%
    Show more